SCP
0 0 0 0 0 0 0 0 0 0 0 0 0 0 0 0 0 0 0 0 0 0 0 0 0 0 0 0 0 0 0 0 0 0 0 0 0 0 0 0 0 0 0
0 0 0 0 0 0 0 0 0 0 0 0 0 0 0 0 0 0 0 0 0 0 0 0 0 0 0 0 0 0 0 0 0 0 -0 0 0 0 0 0 0 0 0
0 0 0 0 0 0 0 0 0 0 0 0 0 0 0 0 0 0 0 0 0 0 0 0 0 0 0 0 0 0 0 0 0 0 -0 0 0 0 0 0 0 0 0
0 0 0 0 0 0 0 0 0 0 0 0 0 0 0 0 0 0 0 0 0 0 0 0 0 0 0 0 0 0 0 0 0 0 0 0 0 0 0 0 0 0 0
0 0 0 0 0 0 0 0 0 0 0 0 0 0 0 0 0 0 0 0 0 0 0 0 0 0 0 0 0 0 0 0 0 0 0 0 0 0 0 0 0 0 0
0 0 0 0 0 0 0 0 0 0 0 0 0 0 0 0 0 0 0 0 0 0 0 0 0 0 0 0 0 0 0 0 0 0 0 0 0 0 0 0 0 0 0
0 0 0 0 0 0 0 0 0 0 0 0 0 0 0 0 0 0 0 0 0 0 0 0 0 0 0 0 0 0 0 0 0 0 0 0 0 0 0 0 0 0 0
0 0 0 0 0 0 0 0 0 0 0 0 0 0 0 0 0 0 0 0 0 0 0 0 0 0 0 0 0 0 0 0 0 0 0 0 0 0 0 0 0 0 0
0 0 0 0 0 0 0 0 0 0 0 0 0 0 0 0 0 0 0 0 0 0 0 0 0 0 0 0 0 0 0 0 0 0 0 0 0 0 0 0 0 0 0
0 0 0 0 0 0 0 0 0 0 0 0 0 0 0 0 0 0 0 0 0 0 0 0 0 0 0 0 0 0 0 0 0 0 0 0 0 0 0 0 0 0 0
0 0 0 0 0 0 0 0 0 0 0 0 0 0 0 0 0 0 0 0 0 0 0 0 0 0 0 0 0 0 0 0 0 0 0 0 0 0 0 0 0 0 0
0 0 0 0 0 0 0 0 0 0 0 0 0 0 0 0 0 0 0 0 0 0 0 0 0 0 0 0 0 0 0 0 0 0 0 0 0 0 0 0 0 0 0
0 0 0 0 0 0 0 0 0 0 0 0 0 0 0 0 0 0 0 0 0 0 0 0 0 0 0 0 0 0 0 0 0 0 0 0 0 0 0 0 0 0 0
0 0 0 0 0 0 0 0 0 0 0 0 0 0 0 0 0 0 0 0 0 0 0 0 0 0 0 0 0 0 0 0 0 0 0 0 0 0 0 0 0 0 0
0 0 0 0 0 0 0 0 0 0 0 0 0 0 0 0 0 0 0 0 0 0 0 0 0 0 0 0 0 0 0 0 0 0 0 0 0 0 0 0 0 0 0
0 0 0 0 0 0 0 0 0 0 0 0 0 0 0 0 0 0 0 0 0 0 0 0 0 0 0 0 0 0 0 0 0 0 0 0 0 0 0 0 0 0 0
0 0 0 0 0 0 0 0 0 0 0 0 0 0 0 0 0 0 0 0 0 0 0 0 0 0 0 0 0 0 0 0 0 0 0 0 0 0 0 0 0 0 0
0 0 0 0 0 0 0 0 0 0 0 0 0 0 0 0 0 0 0 0 0 0 0 0 0 0 0 0 0 0 0 0 0 0 0 0 0 0 0 0 0 0 0
0 0 0 0 0 0 0 0 0 0 0 0 0 0 0 0 0 0 0 0 0 0 0 0 0 0 0 0 0 0 0 0 0 0 0 0 0 0 0 0 0 0 0
0 0 0 0 0 0 0 0 0 0 0 0 0 0 0 0 0 0 0 0 0 0 0 0 0 0 0 0 0 0 0 0 0 0 0 0 0 0 0 0 0 0 0
0 0 0 0 0 0 0 0 0 0 0 0 0 0 0 0 0 0 0 0 0 0 0 0 0 0 0 0 0 0 0 0 0 0 0 0 0 0 0 0 0 0 0
0 0 0 0 0 0 0 0 0 0 0 0 0 0 0 0 0 0 0 0 0 0 0 0 0 0 0 0 0 0 0 0 0 0 0 0 0 0 0 0 0 0 0
0 0 0 0 0 0 0 0 0 0 0 0 0 0 0 0 0 0 0 0 0 0 0 0 0 0 0 0 0 0 0 0 0 0 0 0 0 0 0 0 0 0 0
0 0 0 0 0 0 0 0 0 0 0 0 0 0 0 0 0 0 0 0 0 0 0 0 0 0 0 0 0 0 0 0 0 0 0 0 0 0 0 0 0 0 0
0 0 0 0 0 0 0 0 0 0 0 0 0 0 0 0 0 0 0 0 0 0 0 0 0 0 0 0 0 0 0 0 0 0 0 0 0 0 0 0 0 0 0
0 0 0 0 0 0 0 0 0 0 0 0 0 0 0 0 0 0 0 0 0 0 0 0 0 0 0 0 0 0 0 0 0 0 0 0 0 0 0 0 0 0 0
Wind_Speed_500mb
41 39 36 32 31 28 26 25 22 21 19 18 17 17 20 24 27 30 32 31 31 32 31 29 29 33 36 36 37 37 36 38 43 44 47 41 37 33 21 41 39 43 43
42 40 40 37 33 30 27 25 24 21 19 19 20 22 23 23 23 23 25 26 26 26 24 23 24 26 28 29 31 34 37 41 47 47 37 27 46 31 60 42 54 47 50
44 42 39 37 34 31 28 26 24 24 22 20 18 18 17 18 18 18 20 18 17 18 20 20 22 24 27 30 34 36 37 40 42 42 28 15 17 55 37 62 48 64 59
41 40 39 36 32 30 27 24 21 19 18 17 15 17 14 12 7 5 5 10 13 15 17 20 22 25 28 30 34 38 40 41 42 42 35 35 36 25 33 23 73 62 70
37 37 35 35 33 29 27 23 20 17 13 8 8 9 9 9 6 6 9 10 13 16 19 21 23 25 29 32 34 35 38 40 39 39 43 45 45 39 38 60 58 88 82
42 38 36 36 36 31 27 24 19 19 20 17 14 12 11 12 10 8 9 11 16 18 19 21 25 28 30 34 37 40 41 41 41 40 40 42 45 48 49 63 83 91 96
48 45 41 33 37 34 29 28 30 26 24 19 15 12 10 11 6 6 9 11 12 14 20 26 30 36 42 45 47 46 44 44 43 42 41 41 41 45 49 53 64 80 102
50 50 47 39 37 41 33 16 23 22 19 14 11 11 9 9 8 9 9 12 16 22 27 33 39 44 46 47 46 46 45 45 44 43 43 43 43 43 46 51 57 83 85
52 51 48 38 26 37 22 12 8 9 11 10 8 8 8 9 8 9 12 16 21 27 34 41 44 44 44 44 43 43 41 41 42 42 43 45 45 44 45 45 47 47 62
50 50 43 32 18 13 19 22 21 13 11 9 7 7 6 6 7 9 13 20 28 34 40 42 43 44 44 41 41 42 42 43 45 47 47 49 50 49 49 49 46 44 52
44 35 31 33 37 33 29 24 16 8 6 4 3 4 4 4 8 14 21 30 37 40 40 41 40 39 40 40 41 42 43 45 45 46 48 50 51 52 53 52 51 51 53
36 38 44 46 42 32 24 18 14 11 8 3 2 1 3 9 16 24 33 36 37 37 36 34 35 35 37 38 38 38 40 43 45 47 48 52 53 53 54 56 56 55 55
52 55 57 55 44 39 33 26 19 15 10 7 4 2 9 17 26 32 32 32 31 31 31 32 33 35 35 35 37 41 44 47 50 52 54 57 59 60 61 60 59 59 60
56 61 60 54 48 38 31 26 20 14 9 7 6 7 16 24 27 28 27 26 26 27 29 32 33 34 37 39 43 47 47 48 48 51 53 55 57 61 62 60 58 57 61
68 68 64 55 47 40 32 24 19 16 14 12 8 14 21 23 24 24 24 24 24 27 28 30 33 36 40 44 45 45 48 50 51 51 53 53 52 54 56 57 56 59 65
67 62 54 47 45 39 31 25 21 17 14 10 14 18 21 21 21 21 22 25 27 27 28 30 34 37 39 41 45 49 50 51 52 53 54 57 61 62 62 63 59 58 64
63 54 48 45 42 37 32 26 20 17 16 17 18 21 21 21 21 22 24 25 26 29 30 32 34 35 37 45 48 49 48 46 48 54 59 61 62 66 68 72 74 72 70
53 49 46 42 41 37 32 26 22 20 19 19 21 21 22 22 23 25 26 28 29 29 31 32 33 37 42 46 48 46 44 46 51 56 59 64 69 72 71 80 87 87 84
43 44 43 41 40 35 31 26 23 21 19 21 22 23 25 25 25 25 27 28 30 31 32 34 36 39 42 43 45 46 47 49 53 59 65 68 75 75 67 80 91 97 94
28 32 37 37 35 33 28 23 20 20 23 24 25 26 26 27 26 27 28 31 32 33 35 36 39 41 41 42 43 46 50 56 63 67 69 73 76 63 71 71 77 89 91
24 27 30 31 31 27 22 21 23 25 27 26 26 27 28 27 28 30 33 34 35 33 34 36 39 40 40 40 41 45 52 58 64 68 73 80 64 75 74 66 72 66 73
22 25 25 25 24 22 22 25 29 31 28 25 26 27 29 31 32 33 35 35 35 34 34 33 33 36 38 42 44 47 51 57 64 67 78 83 86 84 80 75 66 60 64
20 23 25 25 22 25 28 30 32 31 27 27 28 30 34 34 33 35 36 36 36 35 35 34 34 35 37 39 45 50 57 61 62 72 80 81 81 80 77 71 65 62 63
24 26 27 26 26 30 32 33 34 32 31 33 33 35 36 35 36 36 36 34 33 34 35 37 37 37 38 42 48 55 62 67 73 79 78 73 74 69 70 71 69 65 62
27 31 32 32 29 36 37 38 39 38 36 38 38 39 39 38 36 35 33 32 33 33 36 37 38 39 40 44 51 54 55 56 65 73 72 75 74 75 75 73 72 69 66
32 37 38 38 35 41 42 45 45 42 41 44 44 42 40 37 34 33 32 30 33 34 34 34 36 36 41 47 52 48 45 61 67 69 71 71 71 72 73 74 76 71 67
Wind_Direction_500mb
194 195 199 204 207 208 214 215 215 218 224 233 243 256 266 277 286 291 295 298 303 307 313 315 312 311 311 316 318 321 321 321 323 329 328 333 331 328 322 321 317 321 317
194 197 201 206 214 214 217 220 223 228 233 243 252 260 267 270 276 285 292 300 307 315 320 323 322 320 321 325 329 334 336 337 340 344 351 340 336 319 322 327 324 325 323
197 196 201 206 210 217 214 218 222 228 238 249 251 254 260 264 270 280 293 308 322 331 335 337 337 339 337 340 342 343 344 342 343 344 348 334 308 316 325 323 320 323 320
195 194 194 196 196 201 205 209 212 217 222 233 252 257 245 234 232 273 324 345 348 349 350 350 350 351 348 347 350 349 345 344 342 341 335 323 316 316 315 313 319 318 319
187 181 179 181 178 182 186 187 194 206 214 194 166 146 145 122 97 54 26 6 359 358 357 356 357 357 359 358 355 351 345 341 336 333 329 324 322 326 308 314 312 317 315
166 164 163 164 163 165 172 175 161 151 136 125 118 116 97 83 68 42 20 4 3 3 3 7 6 1 353 346 342 339 332 327 325 324 324 325 326 322 319 314 315 314 316
154 151 147 150 151 145 140 148 144 140 132 124 114 98 81 77 55 32 19 20 21 13 5 359 349 343 341 336 332 328 326 324 324 326 326 324 319 317 316 314 314 312 313
143 139 135 140 138 132 125 151 132 133 118 107 92 70 57 42 29 27 29 24 11 0 351 342 336 332 328 326 327 327 327 326 324 323 322 321 317 316 315 315 316 315 310
141 136 134 130 133 120 123 150 130 127 118 111 99 76 47 36 27 26 17 3 353 341 334 331 327 327 329 331 330 330 331 332 332 333 333 331 330 327 323 317 314 309 308
136 134 138 136 179 152 184 186 186 176 141 114 89 59 39 20 17 10 346 335 334 329 328 328 331 332 333 334 336 336 337 338 336 336 334 331 331 330 327 323 318 310 300
149 154 146 168 167 175 186 186 168 156 138 119 97 40 11 357 351 335 329 330 328 328 329 330 331 332 334 338 339 338 339 339 339 337 335 333 332 331 328 324 320 314 306
166 174 182 180 180 177 186 182 182 187 184 144 23 7 322 330 330 327 327 327 326 327 330 333 335 336 337 339 340 341 341 342 341 341 339 337 335 334 331 330 327 323 319
188 183 182 183 177 189 193 195 196 195 196 202 219 311 327 324 321 320 323 325 329 331 335 336 336 338 340 341 344 347 348 348 346 344 343 342 342 342 341 339 335 331 327
186 182 186 182 187 192 198 199 199 198 209 217 228 291 310 313 316 317 322 324 329 332 334 336 338 340 344 347 349 349 346 347 348 348 348 349 347 344 343 340 336 331 327
180 184 186 188 193 199 201 200 201 206 209 212 256 298 305 309 312 316 320 324 331 334 336 340 341 343 344 344 345 346 349 350 352 351 350 348 345 345 342 338 337 333 328
183 189 192 199 205 205 204 202 206 210 211 239 280 290 300 302 310 318 325 331 331 332 337 339 341 342 341 342 347 350 350 350 350 350 351 351 352 349 345 344 340 333 327
189 195 204 211 209 209 208 207 207 212 227 260 281 294 299 311 317 320 324 324 326 329 334 335 336 338 343 347 346 346 346 345 349 352 350 348 345 343 339 336 332 330 328
205 215 223 219 215 213 210 211 213 221 248 272 288 295 305 311 311 315 318 319 319 325 328 330 335 340 345 344 339 338 341 347 348 345 344 340 340 339 338 330 328 327 327
219 229 232 224 216 210 209 214 220 239 265 285 290 297 302 301 302 305 311 316 323 328 325 331 337 341 338 335 335 337 341 340 338 338 338 335 336 337 336 328 328 327 326
215 215 206 201 199 202 209 220 242 264 278 280 284 291 295 296 301 309 315 321 321 324 328 330 334 333 332 333 336 335 336 334 334 334 334 336 335 334 332 330 325 325 328
181 179 184 190 196 204 216 239 259 272 275 277 287 294 295 300 309 314 317 318 321 322 326 328 328 329 329 329 330 331 334 335 334 334 333 334 335 330 331 330 327 327 319
176 182 191 199 206 219 242 258 266 270 269 277 288 292 302 305 307 311 316 316 315 319 321 323 325 326 327 326 327 330 333 334 334 332 331 331 329 330 331 331 330 327 326
203 205 207 214 227 247 257 268 272 268 270 280 288 296 298 300 306 309 309 313 316 317 318 322 324 323 323 324 327 330 332 332 332 329 328 328 328 329 329 333 335 335 338
219 219 224 239 254 263 269 273 268 268 274 282 289 291 292 297 299 305 310 312 314 315 317 319 321 325 326 326 326 331 332 333 330 325 329 329 327 327 331 336 341 344 345
244 245 250 256 264 269 276 281 270 269 274 281 286 286 290 294 301 305 306 308 309 312 316 319 324 327 328 330 334 334 335 328 325 325 328 329 331 335 338 341 343 345 343
258 260 264 266 275 277 281 280 273 274 275 278 282 286 291 296 300 301 303 305 309 312 314 316 320 325 327 331 332 333 327 330 329 330 328 330 334 337 340 342 341 341 340
Wind_Speed_850mb
41 39 36 32 31 28 26 25 22 21 19 18 17 17 20 24 27 30 32 31 31 32 31 29 29 33 36 36 37 37 36 38 43 44 47 41 37 33 21 41 39 43 43
42 40 40 37 33 30 27 25 24 21 19 19 20 22 23 23 23 23 25 26 26 26 24 23 24 26 28 29 31 34 37 41 47 47 37 27 46 31 60 42 54 47 50
44 42 39 37 34 31 28 26 24 24 22 20 18 18 17 18 18 18 20 18 17 18 20 20 22 24 27 30 34 36 37 40 42 42 28 15 17 55 37 62 48 64 59
41 40 39 36 32 30 27 24 21 19 18 17 15 17 14 12 7 5 5 10 13 15 17 20 22 25 28 30 34 38 40 41 42 42 35 35 36 25 33 23 73 62 70
37 37 35 35 33 29 27 23 20 17 13 8 8 9 9 9 6 6 9 10 13 16 19 21 23 25 29 32 34 35 38 40 39 39 43 45 45 39 38 60 58 88 82
42 38 36 36 36 31 27 24 19 19 20 17 14 12 11 12 10 8 9 11 16 18 19 21 25 28 30 34 37 40 41 41 41 40 40 42 45 48 49 63 83 91 96
48 45 41 33 37 34 29 28 30 26 24 19 15 12 10 11 6 6 9 11 12 14 20 26 30 36 42 45 47 46 44 44 43 42 41 41 41 45 49 53 64 80 102
50 50 47 39 37 41 33 16 23 22 19 14 11 11 9 9 8 9 9 12 16 22 27 33 39 44 46 47 46 46 45 45 44 43 43 43 43 43 46 51 57 83 85
52 51 48 38 26 37 22 12 8 9 11 10 8 8 8 9 8 9 12 16 21 27 34 41 44 44 44 44 43 43 41 41 42 42 43 45 45 44 45 45 47 47 62
50 50 43 32 18 13 19 22 21 13 11 9 7 7 6 6 7 9 13 20 28 34 40 42 43 44 44 41 41 42 42 43 45 47 47 49 50 49 49 49 46 44 52
44 35 31 33 37 33 29 24 16 8 6 4 3 4 4 4 8 14 21 30 37 40 40 41 40 39 40 40 41 42 43 45 45 46 48 50 51 52 53 52 51 51 53
36 38 44 46 42 32 24 18 14 11 8 3 2 1 3 9 16 24 33 36 37 37 36 34 35 35 37 38 38 38 40 43 45 47 48 52 53 53 54 56 56 55 55
52 55 57 55 44 39 33 26 19 15 10 7 4 2 9 17 26 32 32 32 31 31 31 32 33 35 35 35 37 41 44 47 50 52 54 57 59 60 61 60 59 59 60
56 61 60 54 48 38 31 26 20 14 9 7 6 7 16 24 27 28 27 26 26 27 29 32 33 34 37 39 43 47 47 48 48 51 53 55 57 61 62 60 58 57 61
68 68 64 55 47 40 32 24 19 16 14 12 8 14 21 23 24 24 24 24 24 27 28 30 33 36 40 44 45 45 48 50 51 51 53 53 52 54 56 57 56 59 65
67 62 54 47 45 39 31 25 21 17 14 10 14 18 21 21 21 21 22 25 27 27 28 30 34 37 39 41 45 49 50 51 52 53 54 57 61 62 62 63 59 58 64
63 54 48 45 42 37 32 26 20 17 16 17 18 21 21 21 21 22 24 25 26 29 30 32 34 35 37 45 48 49 48 46 48 54 59 61 62 66 68 72 74 72 70
53 49 46 42 41 37 32 26 22 20 19 19 21 21 22 22 23 25 26 28 29 29 31 32 33 37 42 46 48 46 44 46 51 56 59 64 69 72 71 80 87 87 84
43 44 43 41 40 35 31 26 23 21 19 21 22 23 25 25 25 25 27 28 30 31 32 34 36 39 42 43 45 46 47 49 53 59 65 68 75 75 67 80 91 97 94
28 32 37 37 35 33 28 23 20 20 23 24 25 26 26 27 26 27 28 31 32 33 35 36 39 41 41 42 43 46 50 56 63 67 69 73 76 63 71 71 77 89 91
24 27 30 31 31 27 22 21 23 25 27 26 26 27 28 27 28 30 33 34 35 33 34 36 39 40 40 40 41 45 52 58 64 68 73 80 64 75 74 66 72 66 73
22 25 25 25 24 22 22 25 29 31 28 25 26 27 29 31 32 33 35 35 35 34 34 33 33 36 38 42 44 47 51 57 64 67 78 83 86 84 80 75 66 60 64
20 23 25 25 22 25 28 30 32 31 27 27 28 30 34 34 33 35 36 36 36 35 35 34 34 35 37 39 45 50 57 61 62 72 80 81 81 80 77 71 65 62 63
24 26 27 26 26 30 32 33 34 32 31 33 33 35 36 35 36 36 36 34 33 34 35 37 37 37 38 42 48 55 62 67 73 79 78 73 74 69 70 71 69 65 62
27 31 32 32 29 36 37 38 39 38 36 38 38 39 39 38 36 35 33 32 33 33 36 37 38 39 40 44 51 54 55 56 65 73 72 75 74 75 75 73 72 69 66
32 37 38 38 35 41 42 45 45 42 41 44 44 42 40 37 34 33 32 30 33 34 34 34 36 36 41 47 52 48 45 61 67 69 71 71 71 72 73 74 76 71 67
Wind_Direction_850mb
194 195 199 204 207 208 214 215 215 218 224 233 243 256 266 277 286 291 295 298 303 307 313 315 312 311 311 316 318 321 321 321 323 329 328 333 331 328 322 321 317 321 317
194 197 201 206 214 214 217 220 223 228 233 243 252 260 267 270 276 285 292 300 307 315 320 323 322 320 321 325 329 334 336 337 340 344 351 340 336 319 322 327 324 325 323
197 196 201 206 210 217 214 218 222 228 238 249 251 254 260 264 270 280 293 308 322 331 335 337 337 339 337 340 342 343 344 342 343 344 348 334 308 316 325 323 320 323 320
195 194 194 196 196 201 205 209 212 217 222 233 252 257 245 234 232 273 324 345 348 349 350 350 350 351 348 347 350 349 345 344 342 341 335 323 316 316 315 313 319 318 319
187 181 179 181 178 182 186 187 194 206 214 194 166 146 145 122 97 54 26 6 359 358 357 356 357 357 359 358 355 351 345 341 336 333 329 324 322 326 308 314 312 317 315
166 164 163 164 163 165 172 175 161 151 136 125 118 116 97 83 68 42 20 4 3 3 3 7 6 1 353 346 342 339 332 327 325 324 324 325 326 322 319 314 315 314 316
154 151 147 150 151 145 140 148 144 140 132 124 114 98 81 77 55 32 19 20 21 13 5 359 349 343 341 336 332 328 326 324 324 326 326 324 319 317 316 314 314 312 313
143 139 135 140 138 132 125 151 132 133 118 107 92 70 57 42 29 27 29 24 11 0 351 342 336 332 328 326 327 327 327 326 324 323 322 321 317 316 315 315 316 315 310
141 136 134 130 133 120 123 150 130 127 118 111 99 76 47 36 27 26 17 3 353 341 334 331 327 327 329 331 330 330 331 332 332 333 333 331 330 327 323 317 314 309 308
136 134 138 136 179 152 184 186 186 176 141 114 89 59 39 20 17 10 346 335 334 329 328 328 331 332 333 334 336 336 337 338 336 336 334 331 331 330 327 323 318 310 300
149 154 146 168 167 175 186 186 168 156 138 119 97 40 11 357 351 335 329 330 328 328 329 330 331 332 334 338 339 338 339 339 339 337 335 333 332 331 328 324 320 314 306
166 174 182 180 180 177 186 182 182 187 184 144 23 7 322 330 330 327 327 327 326 327 330 333 335 336 337 339 340 341 341 342 341 341 339 337 335 334 331 330 327 323 319
188 183 182 183 177 189 193 195 196 195 196 202 219 311 327 324 321 320 323 325 329 331 335 336 336 338 340 341 344 347 348 348 346 344 343 342 342 342 341 339 335 331 327
186 182 186 182 187 192 198 199 199 198 209 217 228 291 310 313 316 317 322 324 329 332 334 336 338 340 344 347 349 349 346 347 348 348 348 349 347 344 343 340 336 331 327
180 184 186 188 193 199 201 200 201 206 209 212 256 298 305 309 312 316 320 324 331 334 336 340 341 343 344 344 345 346 349 350 352 351 350 348 345 345 342 338 337 333 328
183 189 192 199 205 205 204 202 206 210 211 239 280 290 300 302 310 318 325 331 331 332 337 339 341 342 341 342 347 350 350 350 350 350 351 351 352 349 345 344 340 333 327
189 195 204 211 209 209 208 207 207 212 227 260 281 294 299 311 317 320 324 324 326 329 334 335 336 338 343 347 346 346 346 345 349 352 350 348 345 343 339 336 332 330 328
205 215 223 219 215 213 210 211 213 221 248 272 288 295 305 311 311 315 318 319 319 325 328 330 335 340 345 344 339 338 341 347 348 345 344 340 340 339 338 330 328 327 327
219 229 232 224 216 210 209 214 220 239 265 285 290 297 302 301 302 305 311 316 323 328 325 331 337 341 338 335 335 337 341 340 338 338 338 335 336 337 336 328 328 327 326
215 215 206 201 199 202 209 220 242 264 278 280 284 291 295 296 301 309 315 321 321 324 328 330 334 333 332 333 336 335 336 334 334 334 334 336 335 334 332 330 325 325 328
181 179 184 190 196 204 216 239 259 272 275 277 287 294 295 300 309 314 317 318 321 322 326 328 328 329 329 329 330 331 334 335 334 334 333 334 335 330 331 330 327 327 319
176 182 191 199 206 219 242 258 266 270 269 277 288 292 302 305 307 311 316 316 315 319 321 323 325 326 327 326 327 330 333 334 334 332 331 331 329 330 331 331 330 327 326
203 205 207 214 227 247 257 268 272 268 270 280 288 296 298 300 306 309 309 313 316 317 318 322 324 323 323 324 327 330 332 332 332 329 328 328 328 329 329 333 335 335 338
219 219 224 239 254 263 269 273 268 268 274 282 289 291 292 297 299 305 310 312 314 315 317 319 321 325 326 326 326 331 332 333 330 325 329 329 327 327 331 336 341 344 345
244 245 250 256 264 269 276 281 270 269 274 281 286 286 290 294 301 305 306 308 309 312 316 319 324 327 328 330 334 334 335 328 325 325 328 329 331 335 338 341 343 345 343
258 260 264 266 275 277 281 280 273 274 275 278 282 286 291 296 300 301 303 305 309 312 314 316 320 325 327 331 332 333 327 330 329 330 328 330 334 337 340 342 341 341 340